User: anonymous   Login
Location: Unspecified
(0.0000°N, 0.0000°E)
Time: 05:00:20
(UTC+00:00)
Language:

ELEKTRO-L - Orbit

View from above orbital plane
View from above orbital plane
View from above satellite
View from above satellite

Ground track
Ground track

The orbit data is extracted from the following two-line orbital elements,

1 37344U 11001A   17023.84931990 -.00000184  00000-0  00000+0 0  9993
2 37344   2.1457  78.4351 0003916 258.4463  68.8181  1.00242266 22055
Epoch (UTC): 23 January 2017 20:23:01
Eccentricity: 0.0003916
inclination: 2.1457°
perigee height: 35778 km
apogee height: 35811 km
right ascension of ascending node: 78.4351°
argument of perigee: 258.4463°
revolutions per day: 1.00242266
mean anomaly at epoch: 68.8181°
orbit number at epoch: 2205

The dashed part of the orbit path shows where the satellite is in the earth's shadow,  

DLR